owner,sensor,date,latitude,longitude,vertical_datum,sea_water_practical_salinity,qcFlag 
DISL,ioos:station:DISL:DISL:1,2016-08-01T00:00:00Z,30.2513,-88.0778,1.931,21.18,1111122 
DISL,ioos:station:DISL:DISL:1,2016-08-01T00:30:00Z,30.2513,-88.0778,1.905,21.06,1111122 
DISL,ioos:station:DISL:DISL:1,2016-08-01T01:00:00Z,30.2513,-88.0778,1.914,21.34,1111122 
DISL,ioos:station:DISL:DISL:1,2016-08-01T01:30:00Z,30.2513,-88.0778,1.882,21.74,1111122 
DISL,ioos:station:DISL:DISL:1,2016-08-01T02:00:00Z,30.2513,-88.0778,1.889,21.58,1111122 
DISL,ioos:station:DISL:DISL:1,2016-08-01T02:30:00Z,30.2513,-88.0778,1.908,20.98,1111122 
DISL,ioos:station:DISL:DISL:1,2016-08-01T03:00:00Z,30.2513,-88.0778,1.891,20.48,1111122 
DISL,ioos:station:DISL:DISL:1,2016-08-01T03:30:00Z,30.2513,-88.0778,1.898,20.91,1111122 
DISL,ioos:station:DISL:DISL:1,2016-08-01T04:00:00Z,30.2513,-88.0778,1.923,21.5,1111122 
DISL,ioos:station:DISL:DISL:1,2016-08-01T04:30:00Z,30.2513,-88.0778,1.947,21.54,1111122 
DISL,ioos:station:DISL:DISL:1,2016-08-01T05:00:00Z,30.2513,-88.0778,1.972,21.38,1111122 
DISL,ioos:station:DISL:DISL:1,2016-08-01T05:30:00Z,30.2513,-88.0778,1.988,20.48,1111122 
DISL,ioos:station:DISL:DISL:1,2016-08-01T06:00:00Z,30.2513,-88.0778,1.997,20.35,1111122 
DISL,ioos:station:DISL:DISL:1,2016-08-01T06:30:00Z,30.2513,-88.0778,2.031,20.61,1111122 
DISL,ioos:station:DISL:DISL:1,2016-08-01T07:00:00Z,30.2513,-88.0778,2.055,20.72,1111122 
DISL,ioos:station:DISL:DISL:1,2016-08-01T07:30:00Z,30.2513,-88.0778,2.078,20.66,1111122 
DISL,ioos:station:DISL:DISL:1,2016-08-01T08:00:00Z,30.2513,-88.0778,2.108,21.19,1111122 
DISL,ioos:station:DISL:DISL:1,2016-08-01T08:30:00Z,30.2513,-88.0778,2.144,21.22,1111122 
DISL,ioos:station:DISL:DISL:1,2016-08-01T09:00:00Z,30.2513,-88.0778,2.18,21.1,1111122 
DISL,ioos:station:DISL:DISL:1,2016-08-01T09:30:00Z,30.2513,-88.0778,2.203,21.59,1111122 
DISL,ioos:station:DISL:DISL:1,2016-08-01T10:00:00Z,30.2513,-88.0778,2.239,22.54,1111122 
DISL,ioos:station:DISL:DISL:1,2016-08-01T10:30:00Z,30.2513,-88.0778,2.267,22.56,1111122 
DISL,ioos:station:DISL:DISL:1,2016-08-01T11:00:00Z,30.2513,-88.0778,2.315,21.51,1111122 
DISL,ioos:station:DISL:DISL:1,2016-08-01T11:30:00Z,30.2513,-88.0778,2.349,21.37,1111122 
DISL,ioos:station:DISL:DISL:1,2016-08-01T12:00:00Z,30.2513,-88.0778,2.356,21.65,1111122 
DISL,ioos:station:DISL:DISL:1,2016-08-01T12:30:00Z,30.2513,-88.0778,2.395,21.77,1111122 
DISL,ioos:station:DISL:DISL:1,2016-08-01T13:00:00Z,30.2513,-88.0778,2.405,22.47,1111122 
DISL,ioos:station:DISL:DISL:1,2016-08-01T13:30:00Z,30.2513,-88.0778,2.407,21.8,1111122 
DISL,ioos:station:DISL:DISL:1,2016-08-01T14:00:00Z,30.2513,-88.0778,2.431,21.85,1111122 
DISL,ioos:station:DISL:DISL:1,2016-08-01T14:30:00Z,30.2513,-88.0778,2.433,22.37,1111122 
DISL,ioos:station:DISL:DISL:1,2016-08-01T15:00:00Z,30.2513,-88.0778,2.412,21.99,1111122 
DISL,ioos:station:DISL:DISL:1,2016-08-01T15:30:00Z,30.2513,-88.0778,2.407,22.05,1111122 
DISL,ioos:station:DISL:DISL:1,2016-08-01T16:00:00Z,30.2513,-88.0778,2.429,20.25,1111122 
DISL,ioos:station:DISL:DISL:1,2016-08-01T16:30:00Z,30.2513,-88.0778,2.399,17.51,1111122 
DISL,ioos:station:DISL:DISL:1,2016-08-01T17:00:00Z,30.2513,-88.0778,2.368,18.23,1111122 
DISL,ioos:station:DISL:DISL:1,2016-08-01T17:30:00Z,30.2513,-88.0778,2.334,20.55,1111122 
DISL,ioos:station:DISL:DISL:1,2016-08-01T18:00:00Z,30.2513,-88.0778,2.298,20.53,1111122 
DISL,ioos:station:DISL:DISL:1,2016-08-01T18:30:00Z,30.2513,-88.0778,2.258,21.39,1111122 
DISL,ioos:station:DISL:DISL:1,2016-08-01T19:00:00Z,30.2513,-88.0778,2.243,21.9,1111122 
DISL,ioos:station:DISL:DISL:1,2016-08-01T19:30:00Z,30.2513,-88.0778,2.138,22.33,1111122 
DISL,ioos:station:DISL:DISL:1,2016-08-01T20:00:00Z,30.2513,-88.0778,2.147,21.79,1111122 
DISL,ioos:station:DISL:DISL:1,2016-08-01T20:30:00Z,30.2513,-88.0778,2.095,19.44,1111122 
DISL,ioos:station:DISL:DISL:1,2016-08-01T21:00:00Z,30.2513,-88.0778,2.091,20.41,1111122 
DISL,ioos:station:DISL:DISL:1,2016-08-01T21:30:00Z,30.2513,-88.0778,2.05,20.1,1111122 
DISL,ioos:station:DISL:DISL:1,2016-08-01T22:00:00Z,30.2513,-88.0778,2.027,18.92,1111122 
DISL,ioos:station:DISL:DISL:1,2016-08-01T22:30:00Z,30.2513,-88.0778,1.994,18.68,1111122 
DISL,ioos:station:DISL:DISL:1,2016-08-01T23:00:00Z,30.2513,-88.0778,2.007,18.84,1111122 
DISL,ioos:station:DISL:DISL:1,2016-08-01T23:30:00Z,30.2513,-88.0778,1.966,18.68,1111122 
DISL,ioos:station:DISL:DISL:1,2016-08-02T00:00:00Z,30.2513,-88.0778,1.958,18.99,1111122 
DISL,ioos:station:DISL:DISL:1,2016-08-02T00:30:00Z,30.2513,-88.0778,1.95,18.58,1111122 
DISL,ioos:station:DISL:DISL:1,2016-08-02T01:00:00Z,30.2513,-88.0778,1.941,19.24,1111122 
DISL,ioos:station:DISL:DISL:1,2016-08-02T01:30:00Z,30.2513,-88.0778,1.957,19.63,1111122 
DISL,ioos:station:DISL:DISL:1,2016-08-02T02:00:00Z,30.2513,-88.0778,1.938,18.98,1111122 
DISL,ioos:station:DISL:DISL:1,2016-08-02T02:30:00Z,30.2513,-88.0778,1.949,19.46,1111122 
DISL,ioos:station:DISL:DISL:1,2016-08-02T03:00:00Z,30.2513,-88.0778,1.959,19.69,1111122 
DISL,ioos:station:DISL:DISL:1,2016-08-02T03:30:00Z,30.2513,-88.0778,1.967,20.79,1111122 
DISL,ioos:station:DISL:DISL:1,2016-08-02T04:00:00Z,30.2513,-88.0778,1.972,21.4,1111122 
DISL,ioos:station:DISL:DISL:1,2016-08-02T04:30:00Z,30.2513,-88.0778,1.987,20.97,1111122 
DISL,ioos:station:DISL:DISL:1,2016-08-02T05:00:00Z,30.2513,-88.0778,2.0,21.74,1111122 
DISL,ioos:station:DISL:DISL:1,2016-08-02T05:30:00Z,30.2513,-88.0778,2.024,20.66,1111122 
DISL,ioos:station:DISL:DISL:1,2016-08-02T06:00:00Z,30.2513,-88.0778,2.047,19.78,1111122 
DISL,ioos:station:DISL:DISL:1,2016-08-02T06:30:00Z,30.2513,-88.0778,2.08,19.42,1111122 
DISL,ioos:station:DISL:DISL:1,2016-08-02T07:00:00Z,30.2513,-88.0778,2.087,19.73,1111122 
DISL,ioos:station:DISL:DISL:1,2016-08-02T07:30:00Z,30.2513,-88.0778,2.142,19.28,1111122 
DISL,ioos:station:DISL:DISL:1,2016-08-02T08:00:00Z,30.2513,-88.0778,2.16,19.35,1111122 
DISL,ioos:station:DISL:DISL:1,2016-08-02T08:30:00Z,30.2513,-88.0778,2.168,19.84,1111122 
DISL,ioos:station:DISL:DISL:1,2016-08-02T09:00:00Z,30.2513,-88.0778,2.202,19.74,1111122 
DISL,ioos:station:DISL:DISL:1,2016-08-02T09:30:00Z,30.2513,-88.0778,2.238,21.03,1111122 
DISL,ioos:station:DISL:DISL:1,2016-08-02T10:00:00Z,30.2513,-88.0778,2.272,20.59,1111122 
DISL,ioos:station:DISL:DISL:1,2016-08-02T10:30:00Z,30.2513,-88.0778,2.299,20.21,1111122 
DISL,ioos:station:DISL:DISL:1,2016-08-02T11:00:00Z,30.2513,-88.0778,2.326,21.33,1111122 
DISL,ioos:station:DISL:DISL:1,2016-08-02T11:30:00Z,30.2513,-88.0778,2.343,21.96,1111122 
DISL,ioos:station:DISL:DISL:1,2016-08-02T12:00:00Z,30.2513,-88.0778,2.376,22.3,1111122 
DISL,ioos:station:DISL:DISL:1,2016-08-02T12:30:00Z,30.2513,-88.0778,2.416,21.5,1111122 
DISL,ioos:station:DISL:DISL:1,2016-08-02T13:00:00Z,30.2513,-88.0778,2.432,21.33,1111122 
DISL,ioos:station:DISL:DISL:1,2016-08-02T13:30:00Z,30.2513,-88.0778,2.438,21.18,1111122 
DISL,ioos:station:DISL:DISL:1,2016-08-02T14:00:00Z,30.2513,-88.0778,2.466,22.59,1111122 
DISL,ioos:station:DISL:DISL:1,2016-08-02T14:30:00Z,30.2513,-88.0778,2.475,21.4,1111122 
DISL,ioos:station:DISL:DISL:1,2016-08-02T15:00:00Z,30.2513,-88.0778,2.513,21.46,1111122 
DISL,ioos:station:DISL:DISL:1,2016-08-02T15:30:00Z,30.2513,-88.0778,2.466,21.44,1111122 
DISL,ioos:station:DISL:DISL:1,2016-08-02T16:00:00Z,30.2513,-88.0778,2.464,21.51,1111122 
DISL,ioos:station:DISL:DISL:1,2016-08-02T16:30:00Z,30.2513,-88.0778,2.441,21.66,1111122 
DISL,ioos:station:DISL:DISL:1,2016-08-02T17:00:00Z,30.2513,-88.0778,2.434,21.01,1111122 
DISL,ioos:station:DISL:DISL:1,2016-08-02T17:30:00Z,30.2513,-88.0778,2.446,21.83,1111122 
DISL,ioos:station:DISL:DISL:1,2016-08-02T18:00:00Z,30.2513,-88.0778,2.403,21.24,1111122 
DISL,ioos:station:DISL:DISL:1,2016-08-02T18:30:00Z,30.2513,-88.0778,2.372,21.54,1111122 
DISL,ioos:station:DISL:DISL:1,2016-08-02T19:00:00Z,30.2513,-88.0778,2.347,21.67,1111122 
DISL,ioos:station:DISL:DISL:1,2016-08-02T19:30:00Z,30.2513,-88.0778,2.306,21.04,1111122 
DISL,ioos:station:DISL:DISL:1,2016-08-02T20:00:00Z,30.2513,-88.0778,2.279,21.12,1111122 
DISL,ioos:station:DISL:DISL:1,2016-08-02T20:30:00Z,30.2513,-88.0778,2.234,20.99,1111122 
DISL,ioos:station:DISL:DISL:1,2016-08-02T21:00:00Z,30.2513,-88.0778,2.211,20.69,1111122 
DISL,ioos:station:DISL:DISL:1,2016-08-02T21:30:00Z,30.2513,-88.0778,2.187,20.53,1111122 
DISL,ioos:station:DISL:DISL:1,2016-08-02T22:00:00Z,30.2513,-88.0778,2.155,20.8,1111122 
DISL,ioos:station:DISL:DISL:1,2016-08-02T22:30:00Z,30.2513,-88.0778,2.107,21.45,1111122 
DISL,ioos:station:DISL:DISL:1,2016-08-02T23:00:00Z,30.2513,-88.0778,2.118,21.55,1111122 
DISL,ioos:station:DISL:DISL:1,2016-08-02T23:30:00Z,30.2513,-88.0778,2.087,21.51,1111122 
DISL,ioos:station:DISL:DISL:1,2016-08-03T00:00:00Z,30.2513,-88.0778,2.074,21.43,1111122 
DISL,ioos:station:DISL:DISL:1,2016-08-03T00:30:00Z,30.2513,-88.0778,2.055,21.15,1111122 
DISL,ioos:station:DISL:DISL:1,2016-08-03T01:00:00Z,30.2513,-88.0778,2.057,20.17,1111122 
DISL,ioos:station:DISL:DISL:1,2016-08-03T01:30:00Z,30.2513,-88.0778,2.036,19.43,1111122 
DISL,ioos:station:DISL:DISL:1,2016-08-03T02:00:00Z,30.2513,-88.0778,2.03,19.16,1111122 
DISL,ioos:station:DISL:DISL:1,2016-08-03T02:30:00Z,30.2513,-88.0778,2.021,19.42,1111122 
DISL,ioos:station:DISL:DISL:1,2016-08-03T03:00:00Z,30.2513,-88.0778,2.03,19.11,1111122 
DISL,ioos:station:DISL:DISL:1,2016-08-03T03:30:00Z,30.2513,-88.0778,2.042,19.66,1111122 
DISL,ioos:station:DISL:DISL:1,2016-08-03T04:00:00Z,30.2513,-88.0778,2.058,19.98,1111122 
DISL,ioos:station:DISL:DISL:1,2016-08-03T04:30:00Z,30.2513,-88.0778,2.081,20.55,1111122 
DISL,ioos:station:DISL:DISL:1,2016-08-03T05:00:00Z,30.2513,-88.0778,2.061,21.02,1111122 
DISL,ioos:station:DISL:DISL:1,2016-08-03T05:30:00Z,30.2513,-88.0778,2.095,21.02,1111122 
DISL,ioos:station:DISL:DISL:1,2016-08-03T06:00:00Z,30.2513,-88.0778,2.085,20.79,1111122 
DISL,ioos:station:DISL:DISL:1,2016-08-03T06:30:00Z,30.2513,-88.0778,2.136,20.73,1111122 
DISL,ioos:station:DISL:DISL:1,2016-08-03T07:00:00Z,30.2513,-88.0778,2.128,19.56,1111122 
DISL,ioos:station:DISL:DISL:1,2016-08-03T07:30:00Z,30.2513,-88.0778,2.16,19.54,1111122 
DISL,ioos:station:DISL:DISL:1,2016-08-03T08:00:00Z,30.2513,-88.0778,2.18,20.11,1111122 
DISL,ioos:station:DISL:DISL:1,2016-08-03T08:30:00Z,30.2513,-88.0778,2.195,20.52,1111122 
DISL,ioos:station:DISL:DISL:1,2016-08-03T09:00:00Z,30.2513,-88.0778,2.231,20.74,1111122 
DISL,ioos:station:DISL:DISL:1,2016-08-03T09:30:00Z,30.2513,-88.0778,2.243,20.86,1111122 
DISL,ioos:station:DISL:DISL:1,2016-08-03T10:00:00Z,30.2513,-88.0778,2.258,20.77,1111122 
DISL,ioos:station:DISL:DISL:1,2016-08-03T10:30:00Z,30.2513,-88.0778,2.285,20.87,1111122 
DISL,ioos:station:DISL:DISL:1,2016-08-03T11:00:00Z,30.2513,-88.0778,2.322,23.28,1111122 
DISL,ioos:station:DISL:DISL:1,2016-08-03T11:30:00Z,30.2513,-88.0778,2.35,24.43,1111122 
DISL,ioos:station:DISL:DISL:1,2016-08-03T12:00:00Z,30.2513,-88.0778,2.376,23.77,1111122 
DISL,ioos:station:DISL:DISL:1,2016-08-03T12:30:00Z,30.2513,-88.0778,2.396,24.94,1111122 
DISL,ioos:station:DISL:DISL:1,2016-08-03T13:00:00Z,30.2513,-88.0778,2.431,24.23,1111122 
DISL,ioos:station:DISL:DISL:1,2016-08-03T13:30:00Z,30.2513,-88.0778,2.433,23.62,1111122 
DISL,ioos:station:DISL:DISL:1,2016-08-03T14:00:00Z,30.2513,-88.0778,2.448,24.36,1111122 
DISL,ioos:station:DISL:DISL:1,2016-08-03T14:30:00Z,30.2513,-88.0778,2.483,21.99,1111122 
DISL,ioos:station:DISL:DISL:1,2016-08-03T15:00:00Z,30.2513,-88.0778,2.47,21.41,1111122 
DISL,ioos:station:DISL:DISL:1,2016-08-03T15:30:00Z,30.2513,-88.0778,2.489,20.91,1111122 
DISL,ioos:station:DISL:DISL:1,2016-08-03T16:00:00Z,30.2513,-88.0778,2.476,20.87,1111122 
DISL,ioos:station:DISL:DISL:1,2016-08-03T16:30:00Z,30.2513,-88.0778,2.489,20.68,1111122 
DISL,ioos:station:DISL:DISL:1,2016-08-03T17:00:00Z,30.2513,-88.0778,2.461,20.72,1111122 
DISL,ioos:station:DISL:DISL:1,2016-08-03T17:30:00Z,30.2513,-88.0778,2.454,20.58,1111122 
DISL,ioos:station:DISL:DISL:1,2016-08-03T18:00:00Z,30.2513,-88.0778,2.463,20.61,1111122 
DISL,ioos:station:DISL:DISL:1,2016-08-03T18:30:00Z,30.2513,-88.0778,2.429,20.69,1111122 
DISL,ioos:station:DISL:DISL:1,2016-08-03T19:00:00Z,30.2513,-88.0778,2.393,20.83,1111122 
DISL,ioos:station:DISL:DISL:1,2016-08-03T19:30:00Z,30.2513,-88.0778,2.35,20.48,1111122 
DISL,ioos:station:DISL:DISL:1,2016-08-03T20:00:00Z,30.2513,-88.0778,2.324,20.79,1111122 
DISL,ioos:station:DISL:DISL:1,2016-08-03T20:30:00Z,30.2513,-88.0778,2.294,20.74,1111122 
DISL,ioos:station:DISL:DISL:1,2016-08-03T21:00:00Z,30.2513,-88.0778,2.277,20.7,1111122 
DISL,ioos:station:DISL:DISL:1,2016-08-03T21:30:00Z,30.2513,-88.0778,2.209,21.36,1111122 
DISL,ioos:station:DISL:DISL:1,2016-08-03T22:00:00Z,30.2513,-88.0778,2.203,20.59,1111122 
DISL,ioos:station:DISL:DISL:1,2016-08-03T22:30:00Z,30.2513,-88.0778,2.195,21.1,1111122 
DISL,ioos:station:DISL:DISL:1,2016-08-03T23:00:00Z,30.2513,-88.0778,2.15,20.82,1111122 
DISL,ioos:station:DISL:DISL:1,2016-08-03T23:30:00Z,30.2513,-88.0778,2.122,20.91,1111122 
DISL,ioos:station:DISL:DISL:1,2016-08-04T00:00:00Z,30.2513,-88.0778,2.136,20.76,1111122 
DISL,ioos:station:DISL:DISL:1,2016-08-04T00:30:00Z,30.2513,-88.0778,2.098,20.15,1111122 
DISL,ioos:station:DISL:DISL:1,2016-08-04T01:00:00Z,30.2513,-88.0778,2.112,19.55,1111122 
DISL,ioos:station:DISL:DISL:1,2016-08-04T01:30:00Z,30.2513,-88.0778,2.089,19.48,1111122 
DISL,ioos:station:DISL:DISL:1,2016-08-04T02:00:00Z,30.2513,-88.0778,2.073,19.55,1111122 
DISL,ioos:station:DISL:DISL:1,2016-08-04T02:30:00Z,30.2513,-88.0778,2.061,19.6,1111122 
DISL,ioos:station:DISL:DISL:1,2016-08-04T03:00:00Z,30.2513,-88.0778,2.072,19.48,1111122 
DISL,ioos:station:DISL:DISL:1,2016-08-04T03:30:00Z,30.2513,-88.0778,2.061,19.53,1111122 
DISL,ioos:station:DISL:DISL:1,2016-08-04T04:00:00Z,30.2513,-88.0778,2.06,19.04,1111122 
DISL,ioos:station:DISL:DISL:1,2016-08-04T04:30:00Z,30.2513,-88.0778,2.08,20.06,1111122 
DISL,ioos:station:DISL:DISL:1,2016-08-04T05:00:00Z,30.2513,-88.0778,2.068,19.66,1111122 
DISL,ioos:station:DISL:DISL:1,2016-08-04T05:30:00Z,30.2513,-88.0778,2.086,20.13,1111122 
DISL,ioos:station:DISL:DISL:1,2016-08-04T06:00:00Z,30.2513,-88.0778,2.092,20.28,1111122 
DISL,ioos:station:DISL:DISL:1,2016-08-04T06:30:00Z,30.2513,-88.0778,2.118,20.6,1111122 
DISL,ioos:station:DISL:DISL:1,2016-08-04T07:00:00Z,30.2513,-88.0778,2.125,20.91,1111122 
DISL,ioos:station:DISL:DISL:1,2016-08-04T07:30:00Z,30.2513,-88.0778,2.163,21.48,1111122 
DISL,ioos:station:DISL:DISL:1,2016-08-04T08:00:00Z,30.2513,-88.0778,2.157,21.77,1111122 
DISL,ioos:station:DISL:DISL:1,2016-08-04T08:30:00Z,30.2513,-88.0778,2.171,21.72,1111122 
DISL,ioos:station:DISL:DISL:1,2016-08-04T09:00:00Z,30.2513,-88.0778,2.206,21.68,1111122 
DISL,ioos:station:DISL:DISL:1,2016-08-04T09:30:00Z,30.2513,-88.0778,2.199,21.96,1111122 
DISL,ioos:station:DISL:DISL:1,2016-08-04T10:00:00Z,30.2513,-88.0778,2.25,22.03,1111122 
DISL,ioos:station:DISL:DISL:1,2016-08-04T10:30:00Z,30.2513,-88.0778,2.225,22.1,1111122 
DISL,ioos:station:DISL:DISL:1,2016-08-04T11:00:00Z,30.2513,-88.0778,2.277,22.07,1111122 
DISL,ioos:station:DISL:DISL:1,2016-08-04T11:30:00Z,30.2513,-88.0778,2.324,20.78,1111122 
DISL,ioos:station:DISL:DISL:1,2016-08-04T12:00:00Z,30.2513,-88.0778,2.296,20.4,1111122 
DISL,ioos:station:DISL:DISL:1,2016-08-04T12:30:00Z,30.2513,-88.0778,2.307,21.09,1111122 
DISL,ioos:station:DISL:DISL:1,2016-08-04T13:00:00Z,30.2513,-88.0778,2.342,21.89,1111122 
DISL,ioos:station:DISL:DISL:1,2016-08-04T13:30:00Z,30.2513,-88.0778,2.375,22.06,1111122 
DISL,ioos:station:DISL:DISL:1,2016-08-04T14:00:00Z,30.2513,-88.0778,2.378,22.97,1111122 
DISL,ioos:station:DISL:DISL:1,2016-08-04T14:30:00Z,30.2513,-88.0778,2.39,22.25,1111122 
DISL,ioos:station:DISL:DISL:1,2016-08-04T15:00:00Z,30.2513,-88.0778,2.431,20.48,1111122 
DISL,ioos:station:DISL:DISL:1,2016-08-04T15:30:00Z,30.2513,-88.0778,2.459,20.57,1111122 
DISL,ioos:station:DISL:DISL:1,2016-08-04T16:00:00Z,30.2513,-88.0778,2.437,21.37,1111122 
DISL,ioos:station:DISL:DISL:1,2016-08-04T16:30:00Z,30.2513,-88.0778,2.424,21.57,1111122 
DISL,ioos:station:DISL:DISL:1,2016-08-04T17:00:00Z,30.2513,-88.0778,2.408,20.88,1111122 
DISL,ioos:station:DISL:DISL:1,2016-08-04T17:30:00Z,30.2513,-88.0778,2.444,19.52,1111122 
DISL,ioos:station:DISL:DISL:1,2016-08-04T18:00:00Z,30.2513,-88.0778,2.42,19.13,1111122 
DISL,ioos:station:DISL:DISL:1,2016-08-04T18:30:00Z,30.2513,-88.0778,2.516,19.09,1111122 
DISL,ioos:station:DISL:DISL:1,2016-08-04T19:00:00Z,30.2513,-88.0778,2.394,19.35,1111122 
DISL,ioos:station:DISL:DISL:1,2016-08-04T19:30:00Z,30.2513,-88.0778,2.37,19.54,1111122 
DISL,ioos:station:DISL:DISL:1,2016-08-04T20:00:00Z,30.2513,-88.0778,2.349,19.41,1111122 
DISL,ioos:station:DISL:DISL:1,2016-08-04T20:30:00Z,30.2513,-88.0778,2.343,19.68,1111122 
DISL,ioos:station:DISL:DISL:1,2016-08-04T21:00:00Z,30.2513,-88.0778,2.314,19.6,1111122 
DISL,ioos:station:DISL:DISL:1,2016-08-04T21:30:00Z,30.2513,-88.0778,2.277,19.64,1111122 
DISL,ioos:station:DISL:DISL:1,2016-08-04T22:00:00Z,30.2513,-88.0778,2.244,19.68,1111122 
DISL,ioos:station:DISL:DISL:1,2016-08-04T22:30:00Z,30.2513,-88.0778,2.224,19.9,1111122 
DISL,ioos:station:DISL:DISL:1,2016-08-04T23:00:00Z,30.2513,-88.0778,2.216,18.33,1111122 
DISL,ioos:station:DISL:DISL:1,2016-08-04T23:30:00Z,30.2513,-88.0778,2.205,19.37,1111122 
DISL,ioos:station:DISL:DISL:1,2016-08-05T00:00:00Z,30.2513,-88.0778,2.217,19.51,1111122 
DISL,ioos:station:DISL:DISL:1,2016-08-05T00:30:00Z,30.2513,-88.0778,2.194,20.42,1111122 
DISL,ioos:station:DISL:DISL:1,2016-08-05T01:00:00Z,30.2513,-88.0778,2.165,20.26,1111122 
DISL,ioos:station:DISL:DISL:1,2016-08-05T01:30:00Z,30.2513,-88.0778,2.161,20.61,1111122 
DISL,ioos:station:DISL:DISL:1,2016-08-05T02:00:00Z,30.2513,-88.0778,2.17,20.27,1111122 
DISL,ioos:station:DISL:DISL:1,2016-08-05T02:30:00Z,30.2513,-88.0778,2.164,21.07,1111122 
DISL,ioos:station:DISL:DISL:1,2016-08-05T03:00:00Z,30.2513,-88.0778,2.16,21.53,1111122 
DISL,ioos:station:DISL:DISL:1,2016-08-05T03:30:00Z,30.2513,-88.0778,2.151,21.24,1111122 
DISL,ioos:station:DISL:DISL:1,2016-08-05T04:00:00Z,30.2513,-88.0778,2.169,21.86,1111122 
DISL,ioos:station:DISL:DISL:1,2016-08-05T04:30:00Z,30.2513,-88.0778,2.156,22.86,1111122 
DISL,ioos:station:DISL:DISL:1,2016-08-05T05:00:00Z,30.2513,-88.0778,2.159,22.13,1111122 
DISL,ioos:station:DISL:DISL:1,2016-08-05T05:30:00Z,30.2513,-88.0778,2.156,22.56,1111122 
DISL,ioos:station:DISL:DISL:1,2016-08-05T06:00:00Z,30.2513,-88.0778,2.161,21.91,1111122 
DISL,ioos:station:DISL:DISL:1,2016-08-05T06:30:00Z,30.2513,-88.0778,2.182,22.34,1111122 
DISL,ioos:station:DISL:DISL:1,2016-08-05T07:00:00Z,30.2513,-88.0778,2.188,22.55,1111122 
DISL,ioos:station:DISL:DISL:1,2016-08-05T07:30:00Z,30.2513,-88.0778,2.209,22.85,1111122 
DISL,ioos:station:DISL:DISL:1,2016-08-05T08:00:00Z,30.2513,-88.0778,2.23,23.07,1111122 
DISL,ioos:station:DISL:DISL:1,2016-08-05T08:30:00Z,30.2513,-88.0778,2.244,23.25,1111122 
DISL,ioos:station:DISL:DISL:1,2016-08-05T09:00:00Z,30.2513,-88.0778,2.227,21.93,1111122 
DISL,ioos:station:DISL:DISL:1,2016-08-05T09:30:00Z,30.2513,-88.0778,2.239,21.34,1111122 
DISL,ioos:station:DISL:DISL:1,2016-08-05T10:00:00Z,30.2513,-88.0778,2.241,20.77,1111122 
DISL,ioos:station:DISL:DISL:1,2016-08-05T10:30:00Z,30.2513,-88.0778,2.26,20.94,1111122 
DISL,ioos:station:DISL:DISL:1,2016-08-05T11:00:00Z,30.2513,-88.0778,2.267,20.99,1111122 
DISL,ioos:station:DISL:DISL:1,2016-08-05T11:30:00Z,30.2513,-88.0778,2.27,21.23,1111122 
DISL,ioos:station:DISL:DISL:1,2016-08-05T12:00:00Z,30.2513,-88.0778,2.282,21.17,1111122 
DISL,ioos:station:DISL:DISL:1,2016-08-05T12:30:00Z,30.2513,-88.0778,2.307,21.02,1111122 
DISL,ioos:station:DISL:DISL:1,2016-08-05T13:00:00Z,30.2513,-88.0778,2.312,20.61,1111122 
DISL,ioos:station:DISL:DISL:1,2016-08-05T13:30:00Z,30.2513,-88.0778,2.33,21.82,1111122 
DISL,ioos:station:DISL:DISL:1,2016-08-05T14:00:00Z,30.2513,-88.0778,2.351,24.12,1111122 
DISL,ioos:station:DISL:DISL:1,2016-08-05T14:30:00Z,30.2513,-88.0778,2.325,24.45,1111122 
DISL,ioos:station:DISL:DISL:1,2016-08-05T15:00:00Z,30.2513,-88.0778,2.36,24.56,1111122 
DISL,ioos:station:DISL:DISL:1,2016-08-05T15:30:00Z,30.2513,-88.0778,2.333,24.85,1111122 
DISL,ioos:station:DISL:DISL:1,2016-08-05T16:00:00Z,30.2513,-88.0778,2.366,24.71,1111122 
DISL,ioos:station:DISL:DISL:1,2016-08-05T16:30:00Z,30.2513,-88.0778,2.375,25.42,1111122 
DISL,ioos:station:DISL:DISL:1,2016-08-05T17:00:00Z,30.2513,-88.0778,2.379,23.73,1111122 
DISL,ioos:station:DISL:DISL:1,2016-08-05T17:30:00Z,30.2513,-88.0778,2.373,21.42,1111122 
DISL,ioos:station:DISL:DISL:1,2016-08-05T18:00:00Z,30.2513,-88.0778,2.375,21.53,1111122 
DISL,ioos:station:DISL:DISL:1,2016-08-05T18:30:00Z,30.2513,-88.0778,2.365,20.54,1111122 
DISL,ioos:station:DISL:DISL:1,2016-08-05T19:00:00Z,30.2513,-88.0778,2.348,20.19,1111122 
DISL,ioos:station:DISL:DISL:1,2016-08-05T19:30:00Z,30.2513,-88.0778,2.344,20.89,1111122 
DISL,ioos:station:DISL:DISL:1,2016-08-05T20:00:00Z,30.2513,-88.0778,2.338,20.26,1111122 
DISL,ioos:station:DISL:DISL:1,2016-08-05T20:30:00Z,30.2513,-88.0778,2.302,20.8,1111122 
DISL,ioos:station:DISL:DISL:1,2016-08-05T21:00:00Z,30.2513,-88.0778,2.269,20.5,1111122 
DISL,ioos:station:DISL:DISL:1,2016-08-05T21:30:00Z,30.2513,-88.0778,2.268,20.42,1111122 
DISL,ioos:station:DISL:DISL:1,2016-08-05T22:00:00Z,30.2513,-88.0778,2.24,20.68,1111122 
DISL,ioos:station:DISL:DISL:1,2016-08-05T22:30:00Z,30.2513,-88.0778,2.219,21.79,1111122 
DISL,ioos:station:DISL:DISL:1,2016-08-05T23:00:00Z,30.2513,-88.0778,2.203,19.8,1111122 
DISL,ioos:station:DISL:DISL:1,2016-08-05T23:30:00Z,30.2513,-88.0778,2.195,19.67,1111122 
DISL,ioos:station:DISL:DISL:1,2016-08-06T00:00:00Z,30.2513,-88.0778,2.194,19.69,1111122 
DISL,ioos:station:DISL:DISL:1,2016-08-06T00:30:00Z,30.2513,-88.0778,2.166,19.53,1111122 
DISL,ioos:station:DISL:DISL:1,2016-08-06T01:00:00Z,30.2513,-88.0778,2.153,21.3,1111122 
DISL,ioos:station:DISL:DISL:1,2016-08-06T01:30:00Z,30.2513,-88.0778,2.149,22.16,1111122 
DISL,ioos:station:DISL:DISL:1,2016-08-06T02:00:00Z,30.2513,-88.0778,2.135,21.88,1111122 
DISL,ioos:station:DISL:DISL:1,2016-08-06T02:30:00Z,30.2513,-88.0778,2.162,22.16,1111122 
DISL,ioos:station:DISL:DISL:1,2016-08-06T03:00:00Z,30.2513,-88.0778,2.139,21.95,1111122 
DISL,ioos:station:DISL:DISL:1,2016-08-06T03:30:00Z,30.2513,-88.0778,2.148,21.99,1111122 
DISL,ioos:station:DISL:DISL:1,2016-08-06T04:00:00Z,30.2513,-88.0778,2.148,21.99,1111122 
DISL,ioos:station:DISL:DISL:1,2016-08-06T04:30:00Z,30.2513,-88.0778,2.125,21.75,1111122 
DISL,ioos:station:DISL:DISL:1,2016-08-06T05:00:00Z,30.2513,-88.0778,2.08,21.69,1111122 
DISL,ioos:station:DISL:DISL:1,2016-08-06T05:30:00Z,30.2513,-88.0778,2.099,21.7,1111122 
DISL,ioos:station:DISL:DISL:1,2016-08-06T06:00:00Z,30.2513,-88.0778,2.12,21.88,1111122 
DISL,ioos:station:DISL:DISL:1,2016-08-06T06:30:00Z,30.2513,-88.0778,2.129,22.17,1111122 
DISL,ioos:station:DISL:DISL:1,2016-08-06T07:00:00Z,30.2513,-88.0778,2.137,22.15,1111122 
DISL,ioos:station:DISL:DISL:1,2016-08-06T07:30:00Z,30.2513,-88.0778,2.142,22.76,1111122 
DISL,ioos:station:DISL:DISL:1,2016-08-06T08:00:00Z,30.2513,-88.0778,2.152,21.74,1111122 
DISL,ioos:station:DISL:DISL:1,2016-08-06T08:30:00Z,30.2513,-88.0778,2.187,21.83,1111122 
DISL,ioos:station:DISL:DISL:1,2016-08-06T09:00:00Z,30.2513,-88.0778,2.191,20.79,1111122 
DISL,ioos:station:DISL:DISL:1,2016-08-06T09:30:00Z,30.2513,-88.0778,2.201,20.69,1111122 
DISL,ioos:station:DISL:DISL:1,2016-08-06T10:00:00Z,30.2513,-88.0778,2.203,20.78,1111122 
DISL,ioos:station:DISL:DISL:1,2016-08-06T10:30:00Z,30.2513,-88.0778,2.21,20.72,1111122 
DISL,ioos:station:DISL:DISL:1,2016-08-06T11:00:00Z,30.2513,-88.0778,2.195,20.61,1111122 
DISL,ioos:station:DISL:DISL:1,2016-08-06T11:30:00Z,30.2513,-88.0778,2.222,20.73,1111122 
DISL,ioos:station:DISL:DISL:1,2016-08-06T12:00:00Z,30.2513,-88.0778,2.219,20.7,1111122 
DISL,ioos:station:DISL:DISL:1,2016-08-06T12:30:00Z,30.2513,-88.0778,2.237,20.59,1111122 
DISL,ioos:station:DISL:DISL:1,2016-08-06T13:00:00Z,30.2513,-88.0778,2.218,19.5,1111122 
DISL,ioos:station:DISL:DISL:1,2016-08-06T13:30:00Z,30.2513,-88.0778,2.228,20.07,1111122 
DISL,ioos:station:DISL:DISL:1,2016-08-06T14:00:00Z,30.2513,-88.0778,2.229,19.68,1111122 